Flag for U.S.A. Weather past 2 weeks in Lowell, Massachusetts, U.S.A.

Now
41 °F

Overcast.


Feels Like: 33 °F
Forecast: 35 / 56 °F
Wind: 16 mph from Northwest

Location: Hanscom Field

Current Time: Apr 25, 2015 at 12:24:36 AM

Latest Report: Apr 24, 2015 at 10:56 PM


Visibility: 10 mi

Pressure: 29.83 "Hg

Humidity: 43%

Dew point: 20 °F

Location of LowellLocation

Historic Weather in Lowell — Graph

°F

Lowell temperature yesterday

Maximum temperature yesterday: 48 °F (at 3:56 PM)
Minimum temperature yesterday: 32 °F (at 2:56 AM)
Average temperature yesterday: 41 °F

Past Weeks' High & Low Weather Summary

 TemperatureHumidityPressure
High72 °F (Apr 13, 3:56 PM)100% (Apr 10, 1:56 AM)30.52 "Hg (Apr 10, 1:56 AM)
Low27 °F (Apr 12, 5:56 AM)14% (Apr 15, 12:56 PM)29.53 "Hg (Apr 21, 8:02 AM)
Average50 °F61%30.00 "Hg
* Reported Apr 9 10:56 PM — Apr 24 10:56 PM, Lowell, Weather by CustomWeather, © 2015

Note: Actual official high and low records may vary slightly from our data, if they occured in-between our weather recording intervals... More about our weather records

Advertising

Lowell weather history for previous 24 hours

 ConditionsComfort  
Time TempWeatherWind HumidityBarometerVisibility
10:56 PM
Fri, Apr 24
41 °FOvercast.16 mph43%29.83 "Hg10 mi
9:56 PM42 °FOvercast.10 mph41%29.83 "Hg10 mi
8:56 PM42 °FOvercast.13 mph41%29.82 "Hg10 mi
6:56 PM44 °FOvercast.18 mph37%29.79 "Hg10 mi
5:56 PM45 °FOvercast.15 mph37%29.77 "Hg10 mi
4:56 PM46 °FOvercast.13 mph38%29.75 "Hg10 mi
3:56 PM48 °FPartly sunny.15 mph36%29.74 "Hg10 mi
2:56 PM46 °FPartly sunny.13 mph38%29.74 "Hg10 mi
1:56 PM47 °FOvercast.13 mph39%29.75 "Hg10 mi
12:56 PM46 °FPartly sunny.17 mph40%29.75 "Hg10 mi
11:56 AM47 °FPassing clouds.17 mph39%29.75 "Hg10 mi
10:56 AM46 °FScattered clouds.14 mph42%29.75 "Hg10 mi
9:56 AM45 °FPartly sunny.15 mph44%29.77 "Hg10 mi
8:56 AM43 °FMostly cloudy.16 mph49%29.76 "Hg10 mi
7:56 AM40 °FPartly sunny.14 mph53%29.76 "Hg10 mi
6:56 AM37 °FOvercast.13 mph62%29.76 "Hg10 mi
5:56 AM37 °FMostly cloudy.9 mph62%29.74 "Hg10 mi
4:56 AM36 °FMostly cloudy.8 mph70%29.73 "Hg10 mi
3:56 AM34 °FMostly cloudy.7 mph73%29.73 "Hg10 mi
2:56 AM32 °FClear.6 mph75%29.72 "Hg10 mi
1:56 AM33 °FClear.5 mph70%29.72 "Hg10 mi
12:56 AM35 °FPassing clouds.8 mph64%29.73 "Hg10 mi
Weather by CustomWeather, © 2015

See weather overviewHow to use our weather pages